Location: D�derode
(51.8092°N, 10.1065°E)
Time: 01:26:37
(UTC+00:00)

BREEZE-M DEB (TANK) - Pass Details

Date: 24 April 2021
Orbit: 314 x 13086 km, 49.6° (Epoch: 09 May)

Event Time Altitude Azimuth Distance (km) Brightness Sun altitude
Rises 00:42:37 0° 285° (WNW) 7,456 8.5 -22.7°
Reaches altitude 10° 00:49:34 10° 282° (WNW) 4,692 7.4 -22.3°
Enters shadow 00:58:36 48° 217° (SW) 1,054 3.7 -21.7°
